Change the Weather History Date:

Tuesday, January 7, 2014

  Actual Average Record
Temperature  
Mean Temperature 8 °F -  
Max Temperature 9 °F 40 °F - (-1)
Min Temperature 3 °F 30 °F - (-1)
Degree Days  
Heating Degree Days 56    
Moisture  
Dew Point -12 °F    
Average Humidity 41    
Maximum Humidity 53    
Minimum Humidity 33    
Precipitation  
Precipitation 0.00 in - - ()
Sea Level Pressure  
Sea Level Pressure 30.19 in    
Wind  
Wind Speed 23 mph (WNW)    
Max Wind Speed 30 mph    
Max Gust Speed 45 mph    
Averages and records for this station are not official NWS values.
T = Trace of Precipitation, MM = Missing Value Source: NWS Daily Summary

Daily Weather History Graph

Daily Weather History Graph

Search for Another Location

Airport or City:

Trip Planner

Search our weather history database for the weather conditions in past years. The results will help you decide how hot, cold, wet, or windy it might be!

Date:

Astronomy

Jan. 07, 2014 Rise Set
Actual Time 7:19 AM EST 4:48 PM EST
Civil Twilight 6:49 AM EST 5:18 PM EST
Nautical Twilight 6:15 AM EST 5:52 PM EST
Astronomical Twilight 5:42 AM EST 6:24 PM EST
Moon 11:06 AM EST (1/7) No Moon Set
Length of Visible Light 10h 29m
Length of Day
9h 28m
Waxing Crescent, 45% of the Moon is Illuminated
Jan 7
Waxing Crescent
Jan 7
First Quarter
Jan 15
Full
Jan 24
Last Quarter
Jan 30
New

Hourly Weather History & Observations

Time (EST) Temp. Windchill Dew Point Humidity Pressure Visibility Wind Dir Wind Speed Gust Speed Precip Events Conditions
12:00 AM 14.0 °F -5.8 °F -9.9 °F 34% 29.84 in - WNW 26.5 mph 44.9 mph N/A   Clear
1:00 AM 10.0 °F -12.2 °F -11.9 °F 37% 29.88 in - West 29.9 mph 40.3 mph N/A   Clear
2:00 AM 9.0 °F -12.6 °F -11.9 °F 38% 29.93 in - WNW 26.5 mph 35.7 mph N/A   Clear
3:00 AM 7.0 °F -14.0 °F -11.0 °F 44% 29.98 in - West 23.0 mph 38.0 mph N/A   Clear
4:00 AM 6.1 °F -16.1 °F -14.1 °F 39% 30.01 in - WNW 25.3 mph 41.4 mph N/A   Clear
5:00 AM 5.0 °F -16.7 °F -13.0 °F 43% 30.05 in - WNW 23.0 mph 31.1 mph N/A   Clear
6:00 AM 3.9 °F -20.5 °F -15.0 °F 41% 30.09 in - WNW 29.9 mph 40.3 mph N/A   Clear
7:00 AM 3.0 °F -21.0 °F -15.0 °F 43% 30.14 in - WNW 27.6 mph 39.1 mph N/A   Clear
8:00 AM 3.0 °F -19.3 °F -15.0 °F 43% 30.18 in - WNW 23.0 mph 28.8 mph N/A   Clear
9:00 AM 3.9 °F -18.1 °F -16.1 °F 39% 30.22 in - WNW 23.0 mph 33.4 mph N/A   Clear
10:00 AM 6.1 °F -16.1 °F -15.0 °F 38% 30.26 in - West 25.3 mph 35.7 mph N/A   Clear
11:00 AM 7.0 °F -13.6 °F -16.1 °F 34% 30.25 in - WNW 21.9 mph 34.5 mph N/A   Clear
12:00 PM 8.1 °F -14.2 °F -15.0 °F 34% 30.23 in - West 27.6 mph 34.5 mph N/A   Clear
1:00 PM 10.0 °F -8.1 °F -14.1 °F 33% 30.23 in - WNW 18.4 mph 27.6 mph N/A   Clear
2:00 PM 10.0 °F -7.6 °F -13.0 °F 35% 30.26 in - West 17.3 mph 29.9 mph N/A   Clear
3:00 PM 10.0 °F -10.0 °F -11.9 °F 37% 30.25 in - WNW 23.0 mph 29.9 mph N/A   Clear
4:00 PM 9.0 °F -9.5 °F -11.9 °F 38% 30.27 in - WNW 18.4 mph 27.6 mph N/A   Unknown
5:00 PM 8.1 °F -9.6 °F -11.0 °F 42% 30.29 in - WNW 16.1 mph 23.0 mph N/A   Unknown
6:00 PM 8.1 °F -8.4 °F -9.0 °F 46% 30.30 in - WNW 13.8 mph - N/A   Clear
7:00 PM 8.1 °F -5.3 °F -9.0 °F 46% 30.33 in - West 9.2 mph - N/A   Clear
8:00 PM 8.1 °F -4.3 °F -8.0 °F 48% 30.35 in - West 8.1 mph - N/A   Clear
9:00 PM 9.0 °F -4.2 °F -8.0 °F 46% 30.38 in - West 9.2 mph - N/A   Clear
10:00 PM 9.0 °F -3.2 °F -7.1 °F 48% 30.40 in - West 8.1 mph - N/A   Clear
11:00 PM 8.1 °F -2.0 °F -6.0 °F 53% 30.41 in - West 5.8 mph - N/A   Clear